QPF
0.01 0.02 0.02 0.04 0.04 0.02 0.02 0.05 0.05 0.03 0.02 0.01 0.01 0.01 0.02 0.03 0.05 0.08 0.11 0.13 0.16 0.18 0.14 0.12 0.08 0.03 0.02 0.03 0.03 0.02 0.02 0.03 0.04 0.07 0.09 0.05 0.03 0.03 0.03 0.04 0.07 0.12 0.10 0.07 0.07 0.08 0.10 0.12 0.11
0.00 0.01 0.05 0.05 0.04 0.03 0.03 0.06 0.06 0.04 0.02 0.01 0.00 0.00 0.01 0.04 0.06 0.09 0.13 0.16 0.17 0.13 0.10 0.10 0.07 0.02 0.02 0.02 0.03 0.02 0.02 0.03 0.04 0.06 0.08 0.04 0.02 0.02 0.03 0.04 0.05 0.10 0.11 0.07 0.07 0.07 0.08 0.10 0.09
0.01 0.02 0.05 0.06 0.04 0.04 0.04 0.06 0.05 0.02 0.01 0.00 0.00 0.00 0.01 0.04 0.06 0.09 0.12 0.12 0.13 0.13 0.11 0.10 0.05 0.02 0.02 0.03 0.04 0.03 0.03 0.03 0.04 0.05 0.05 0.03 0.02 0.03 0.04 0.04 0.05 0.09 0.09 0.08 0.09 0.08 0.08 0.07 0.06
0.01 0.02 0.02 0.02 0.02 0.03 0.03 0.04 0.03 0.01 0.00 0.00 0.00 0.01 0.02 0.04 0.05 0.06 0.07 0.08 0.11 0.12 0.10 0.06 0.03 0.02 0.06 0.12 0.12 0.07 0.04 0.04 0.05 0.06 0.05 0.04 0.03 0.04 0.06 0.05 0.04 0.05 0.05 0.05 0.08 0.10 0.09 0.08 0.06
0.01 0.02 0.02 0.01 0.02 0.03 0.03 0.01 0.01 0.00 0.00 0.00 0.00 0.00 0.02 0.04 0.02 0.03 0.04 0.04 0.06 0.07 0.06 0.03 0.02 0.04 0.16 0.24 0.12 0.08 0.06 0.05 0.06 0.06 0.05 0.04 0.03 0.04 0.05 0.04 0.03 0.04 0.04 0.03 0.04 0.06 0.08 0.08 0.06
0.01 0.02 0.01 0.02 0.03 0.04 0.03 0.01 0.01 0.00 0.00 0.00 0.00 0.01 0.02 0.03 0.02 0.02 0.03 0.03 0.03 0.03 0.04 0.03 0.03 0.08 0.24 0.19 0.09 0.09 0.07 0.04 0.04 0.05 0.04 0.03 0.03 0.04 0.05 0.04 0.03 0.04 0.04 0.04 0.04 0.04 0.04 0.04 0.04
0.01 0.01 0.01 0.02 0.03 0.07 0.05 0.03 0.02 0.01 0.00 0.00 0.00 0.01 0.02 0.02 0.02 0.03 0.04 0.02 0.02 0.03 0.03 0.02 0.03 0.08 0.20 0.12 0.06 0.09 0.06 0.04 0.03 0.03 0.04 0.04 0.04 0.03 0.04 0.05 0.04 0.05 0.04 0.03 0.05 0.07 0.08 0.07 0.05
0.02 0.01 0.01 0.02 0.04 0.09 0.07 0.02 0.01 0.01 0.00 0.00 0.00 0.01 0.02 0.01 0.01 0.02 0.04 0.04 0.04 0.03 0.03 0.02 0.01 0.05 0.10 0.08 0.06 0.05 0.04 0.03 0.03 0.03 0.03 0.03 0.03 0.03 0.04 0.04 0.04 0.04 0.04 0.04 0.06 0.10 0.14 0.13 0.09
0.02 0.02 0.02 0.02 0.03 0.08 0.06 0.03 0.01 0.01 0.00 0.00 0.01 0.01 0.01 0.01 0.01 0.01 0.02 0.04 0.05 0.05 0.04 0.02 0.01 0.01 0.03 0.05 0.06 0.05 0.04 0.03 0.03 0.03 0.01 0.01 0.02 0.02 0.03 0.04 0.05 0.04 0.03 0.02 0.04 0.04 0.04 0.07 0.08
0.03 0.03 0.03 0.01 0.02 0.04 0.05 0.03 0.01 0.01 0.01 0.01 0.01 0.01 0.01 0.01 0.01 0.01 0.02 0.02 0.03 0.05 0.05 0.03 0.02 0.01 0.01 0.02 0.02 0.02 0.01 0.01 0.01 0.01 0.01 0.02 0.02 0.03 0.03 0.04 0.05 0.05 0.04 0.05 0.05 0.03 0.02 0.02 0.02
0.02 0.02 0.02 0.01 0.01 0.01 0.01 0.02 0.01 0.01 0.01 0.01 0.01 0.00 0.01 0.01 0.01 0.01 0.01 0.02 0.02 0.04 0.05 0.03 0.02 0.01 0.01 0.01 0.01 0.01 0.01 0.01 0.01 0.02 0.02 0.02 0.03 0.03 0.03 0.04 0.05 0.06 0.06 0.05 0.05 0.04 0.03 0.02 0.02
0.02 0.01 0.00 0.01 0.01 0.00 0.01 0.01 0.04 0.02 0.01 0.01 0.00 0.00 0.00 0.00 0.01 0.01 0.02 0.03 0.03 0.04 0.04 0.03 0.01 0.01 0.01 0.01 0.01 0.01 0.01 0.01 0.02 0.02 0.02 0.02 0.01 0.01 0.03 0.04 0.03 0.03 0.03 0.04 0.07 0.07 0.05 0.04 0.05
0.02 0.01 0.01 0.01 0.01 0.01 0.01 0.02 0.05 0.03 0.02 0.01 0.00 0.01 0.01 0.00 0.00 0.01 0.01 0.02 0.03 0.03 0.03 0.02 0.01 0.02 0.02 0.02 0.02 0.01 0.01 0.02 0.02 0.01 0.00 0.01 0.01 0.01 0.02 0.04 0.04 0.03 0.02 0.01 0.04 0.08 0.06 0.06 0.05
0.01 0.02 0.02 0.02 0.01 0.01 0.02 0.01 0.02 0.03 0.03 0.01 0.01 0.01 0.01 0.01 0.00 0.00 0.01 0.01 0.02 0.02 0.03 0.03 0.03 0.04 0.04 0.04 0.04 0.02 0.02 0.01 0.01 0.00 0.00 0.00 0.00 0.00 0.00 0.01 0.02 0.01 0.01 0.01 0.01 0.03 0.03 0.03 0.02
0.02 0.02 0.01 0.03 0.03 0.02 0.02 0.02 0.01 0.02 0.02 0.01 0.01 0.01 0.01 0.01 0.00 0.00 0.01 0.01 0.01 0.02 0.03 0.03 0.04 0.04 0.04 0.04 0.03 0.02 0.01 0.01 0.00 0.00 0.00 0.00 0.00 0.00 0.00 0.00 0.01 0.01 0.01 0.01 0.01 0.01 0.02 0.02 0.01
0.02 0.02 0.01 0.02 0.03 0.02 0.01 0.02 0.01 0.01 0.01 0.01 0.02 0.02 0.02 0.02 0.01 0.00 0.01 0.01 0.02 0.01 0.02 0.03 0.04 0.04 0.04 0.03 0.02 0.02 0.01 0.01 0.00 0.00 0.00 0.00 0.00 0.00 0.01 0.01 0.01 0.02 0.02 0.01 0.01 0.02 0.02 0.01 0.00
0.02 0.01 0.01 0.01 0.01 0.01 0.01 0.01 0.02 0.01 0.01 0.01 0.02 0.03 0.03 0.03 0.02 0.02 0.01 0.02 0.02 0.02 0.02 0.03 0.04 0.04 0.03 0.02 0.02 0.02 0.01 0.01 0.01 0.00 0.00 0.00 0.00 0.01 0.01 0.01 0.02 0.02 0.02 0.02 0.02 0.02 0.01 0.01 0.00
0.02 0.02 0.01 0.02 0.03 0.02 0.02 0.02 0.02 0.01 0.01 0.01 0.01 0.03 0.03 0.03 0.04 0.03 0.02 0.02 0.02 0.02 0.03 0.04 0.03 0.03 0.02 0.02 0.02 0.02 0.01 0.01 0.00 0.00 0.00 0.00 0.00 0.01 0.01 0.01 0.01 0.02 0.02 0.02 0.02 0.03 0.02 0.01 0.00
0.02 0.02 0.02 0.02 0.03 0.03 0.03 0.03 0.03 0.02 0.01 0.01 0.01 0.01 0.02 0.03 0.03 0.04 0.02 0.02 0.03 0.03 0.04 0.04 0.03 0.03 0.03 0.03 0.02 0.01 0.01 0.01 0.01 0.00 0.00 0.00 0.00 0.00 0.01 0.01 0.01 0.02 0.02 0.01 0.02 0.02 0.02 0.01 0.00
0.02 0.02 0.02 0.02 0.02 0.02 0.03 0.03 0.03 0.02 0.01 0.01 0.01 0.01 0.01 0.02 0.03 0.04 0.03 0.03 0.03 0.04 0.04 0.04 0.03 0.02 0.02 0.01 0.01 0.00 0.01 0.02 0.01 0.00 0.00 0.00 0.00 0.00 0.00 0.01 0.00 0.01 0.02 0.01 0.02 0.02 0.02 0.01 0.00
0.01 0.02 0.01 0.01 0.02 0.02 0.03 0.02 0.02 0.02 0.02 0.01 0.00 0.01 0.01 0.02 0.02 0.03 0.02 0.03 0.03 0.03 0.03 0.04 0.03 0.02 0.02 0.02 0.01 0.01 0.01 0.02 0.01 0.01 0.00 0.00 0.00 0.00 0.00 0.00 0.01 0.01 0.02 0.03 0.02 0.02 0.01 0.01 0.00
0.00 0.01 0.01 0.01 0.02 0.03 0.02 0.02 0.02 0.02 0.02 0.01 0.01 0.00 0.01 0.02 0.03 0.02 0.02 0.02 0.02 0.02 0.03 0.04 0.04 0.03 0.03 0.03 0.02 0.01 0.01 0.01 0.02 0.01 0.00 0.00 0.00 0.00 0.00 0.00 0.01 0.01 0.02 0.03 0.02 0.02 0.01 0.01 0.01
0.00 0.00 0.00 0.01 0.02 0.02 0.01 0.02 0.01 0.02 0.01 0.01 0.00 0.00 0.01 0.01 0.02 0.03 0.02 0.01 0.02 0.02 0.03 0.04 0.04 0.04 0.04 0.04 0.03 0.02 0.01 0.01 0.02 0.01 0.01 0.01 0.01 0.01 0.00 0.00 0.01 0.01 0.02 0.03 0.03 0.02 0.01 0.01 0.01
0.00 0.00 0.00 0.01 0.01 0.01 0.01 0.01 0.02 0.03 0.03 0.01 0.00 0.00 0.00 0.01 0.01 0.03 0.04 0.03 0.03 0.02 0.02 0.03 0.04 0.04 0.05 0.04 0.04 0.03 0.02 0.01 0.01 0.01 0.01 0.02 0.02 0.02 0.02 0.01 0.01 0.01 0.01 0.02 0.02 0.02 0.02 0.01 0.01
0.01 0.01 0.01 0.01 0.01 0.01 0.01 0.01 0.03 0.03 0.02 0.01 0.01 0.00 0.00 0.01 0.01 0.02 0.04 0.05 0.05 0.03 0.02 0.02 0.02 0.02 0.04 0.05 0.04 0.03 0.02 0.01 0.01 0.00 0.00 0.01 0.01 0.02 0.03 0.03 0.02 0.02 0.02 0.02 0.02 0.02 0.02 0.01 0.01
0.01 0.01 0.01 0.01 0.01 0.01 0.01 0.03 0.04 0.03 0.02 0.01 0.01 0.01 0.01 0.01 0.02 0.02 0.03 0.04 0.04 0.04 0.03 0.02 0.01 0.02 0.03 0.04 0.05 0.04 0.02 0.02 0.02 0.01 0.01 0.01 0.02 0.02 0.02 0.03 0.02 0.01 0.01 0.01 0.02 0.03 0.02 0.01 0.02
0.02 0.01 0.01 0.01 0.01 0.01 0.02 0.03 0.03 0.02 0.01 0.01 0.02 0.01 0.01 0.01 0.02 0.02 0.03 0.03 0.05 0.05 0.04 0.03 0.02 0.02 0.02 0.03 0.04 0.05 0.03 0.02 0.02 0.02 0.01 0.01 0.01 0.01 0.01 0.02 0.02 0.01 0.01 0.01 0.01 0.01 0.03 0.03 0.02
0.02 0.02 0.02 0.02 0.02 0.02 0.02 0.02 0.04 0.03 0.02 0.01 0.02 0.02 0.01 0.02 0.03 0.03 0.04 0.04 0.04 0.05 0.04 0.02 0.02 0.01 0.02 0.02 0.02 0.03 0.04 0.05 0.04 0.03 0.02 0.01 0.01 0.01 0.04 0.04 0.03 0.02 0.01 0.01 0.01 0.01 0.01 0.02 0.02
0.02 0.03 0.03 0.02 0.02 0.02 0.02 0.04 0.04 0.05 0.03 0.02 0.02 0.01 0.01 0.01 0.02 0.03 0.04 0.04 0.04 0.04 0.02 0.02 0.01 0.01 0.01 0.02 0.02 0.02 0.03 0.04 0.05 0.04 0.03 0.02 0.01 0.01 0.04 0.06 0.05 0.04 0.03 0.02 0.01 0.01 0.01 0.02 0.02
0.02 0.03 0.03 0.02 0.01 0.01 0.02 0.05 0.03 0.03 0.03 0.02 0.01 0.01 0.00 0.00 0.01 0.02 0.03 0.04 0.05 0.04 0.02 0.02 0.02 0.01 0.01 0.02 0.02 0.02 0.02 0.03 0.04 0.04 0.04 0.04 0.03 0.02 0.02 0.02 0.02 0.03 0.03 0.03 0.03 0.02 0.02 0.01 0.01
MSLP
1005.37 1006.60 1008.40 1010.58 1012.92 1015.13 1017.01 1018.38 1019.19 1019.46 1019.35 1019.05 1018.73 1018.55 1018.56 1018.75 1019.03 1019.27 1019.34 1019.15 1018.68 1017.97 1017.09 1016.17 1015.33 1014.64 1014.12 1013.75 1013.47 1013.22 1012.94 1012.59 1012.17 1011.70 1011.21 1010.75 1010.32 1009.93 1009.56 1009.17 1008.75 1008.29 1007.78 1007.25 1006.72 1006.21 1005.71 1005.22 1004.70
1006.35 1007.96 1010.07 1012.44 1014.83 1016.97 1018.64 1019.72 1020.20 1020.16 1019.79 1019.30 1018.88 1018.66 1018.69 1018.92 1019.24 1019.52 1019.62 1019.45 1019.01 1018.33 1017.51 1016.66 1015.89 1015.26 1014.80 1014.47 1014.22 1013.99 1013.73 1013.39 1012.99 1012.54 1012.08 1011.63 1011.20 1010.79 1010.39 1009.97 1009.52 1009.04 1008.55 1008.07 1007.62 1007.20 1006.81 1006.41 1006.00
1007.56 1009.46 1011.77 1014.22 1016.55 1018.51 1019.92 1020.70 1020.87 1020.57 1020.01 1019.40 1018.92 1018.70 1018.74 1019.00 1019.34 1019.63 1019.74 1019.59 1019.17 1018.55 1017.80 1017.03 1016.35 1015.80 1015.40 1015.12 1014.89 1014.68 1014.42 1014.10 1013.72 1013.29 1012.85 1012.41 1011.98 1011.55 1011.12 1010.66 1010.19 1009.71 1009.25 1008.82 1008.45 1008.14 1007.86 1007.58 1007.27
1008.94 1011.04 1013.42 1015.83 1018.01 1019.73 1020.85 1021.34 1021.27 1020.78 1020.10 1019.45 1018.98 1018.78 1018.86 1019.13 1019.47 1019.73 1019.82 1019.66 1019.26 1018.68 1018.01 1017.33 1016.74 1016.28 1015.94 1015.69 1015.48 1015.26 1015.00 1014.68 1014.31 1013.91 1013.49 1013.08 1012.65 1012.22 1011.78 1011.31 1010.83 1010.36 1009.93 1009.56 1009.27 1009.05 1008.87 1008.69 1008.48
1010.41 1012.60 1014.95 1017.22 1019.17 1020.61 1021.45 1021.70 1021.45 1020.86 1020.17 1019.56 1019.15 1019.02 1019.13 1019.40 1019.71 1019.93 1019.96 1019.77 1019.37 1018.83 1018.22 1017.64 1017.13 1016.73 1016.43 1016.20 1015.98 1015.75 1015.48 1015.16 1014.80 1014.42 1014.04 1013.65 1013.26 1012.85 1012.41 1011.95 1011.48 1011.03 1010.63 1010.32 1010.09 1009.95 1009.85 1009.75 1009.61
1011.86 1014.04 1016.27 1018.32 1019.99 1021.15 1021.75 1021.81 1021.47 1020.89 1020.28 1019.77 1019.49 1019.44 1019.60 1019.86 1020.12 1020.26 1020.22 1019.98 1019.57 1019.05 1018.51 1017.99 1017.56 1017.21 1016.93 1016.70 1016.46 1016.19 1015.89 1015.56 1015.21 1014.87 1014.53 1014.19 1013.85 1013.47 1013.07 1012.63 1012.18 1011.76 1011.40 1011.13 1010.95 1010.85 1010.80 1010.75 1010.65
1013.21 1015.30 1017.33 1019.12 1020.50 1021.40 1021.79 1021.75 1021.41 1020.92 1020.45 1020.12 1019.98 1020.05 1020.25 1020.50 1020.69 1020.75 1020.62 1020.33 1019.89 1019.40 1018.89 1018.44 1018.06 1017.75 1017.48 1017.23 1016.95 1016.65 1016.31 1015.97 1015.63 1015.31 1015.02 1014.74 1014.45 1014.14 1013.78 1013.38 1012.97 1012.57 1012.24 1011.98 1011.82 1011.74 1011.70 1011.66 1011.58
1014.41 1016.35 1018.16 1019.66 1020.77 1021.43 1021.68 1021.59 1021.31 1020.96 1020.68 1020.55 1020.59 1020.76 1021.01 1021.23 1021.36 1021.32 1021.12 1020.77 1020.33 1019.85 1019.39 1018.99 1018.66 1018.37 1018.10 1017.82 1017.50 1017.15 1016.78 1016.41 1016.08 1015.79 1015.55 1015.33 1015.10 1014.84 1014.53 1014.18 1013.80 1013.43 1013.10 1012.85 1012.69 1012.59 1012.54 1012.49 1012.40
1015.47 1017.23 1018.79 1020.03 1020.89 1021.36 1021.51 1021.43 1021.24 1021.06 1020.98 1021.04 1021.23 1021.50 1021.77 1021.97 1022.03 1021.92 1021.65 1021.27 1020.82 1020.37 1019.96 1019.61 1019.32 1019.05 1018.78 1018.47 1018.11 1017.71 1017.31 1016.92 1016.59 1016.32 1016.11 1015.94 1015.76 1015.55 1015.29 1014.97 1014.62 1014.26 1013.94 1013.68 1013.49 1013.37 1013.29 1013.20 1013.09
1016.42 1018.00 1019.32 1020.32 1020.98 1021.31 1021.41 1021.36 1021.28 1021.25 1021.34 1021.55 1021.85 1022.18 1022.46 1022.63 1022.63 1022.47 1022.16 1021.75 1021.32 1020.91 1020.55 1020.25 1020.00 1019.75 1019.47 1019.13 1018.74 1018.31 1017.88 1017.48 1017.14 1016.88 1016.69 1016.54 1016.40 1016.23 1016.00 1015.70 1015.37 1015.01 1014.69 1014.41 1014.20 1014.04 1013.92 1013.80 1013.66
1017.34 1018.74 1019.86 1020.67 1021.16 1021.41 1021.48 1021.47 1021.48 1021.57 1021.77 1022.08 1022.44 1022.78 1023.04 1023.17 1023.12 1022.91 1022.58 1022.19 1021.78 1021.41 1021.11 1020.85 1020.63 1020.39 1020.11 1019.77 1019.35 1018.90 1018.45 1018.03 1017.69 1017.43 1017.24 1017.10 1016.97 1016.81 1016.59 1016.31 1015.98 1015.64 1015.30 1015.01 1014.77 1014.58 1014.43 1014.28 1014.13
1018.27 1019.52 1020.48 1021.14 1021.54 1021.72 1021.79 1021.82 1021.89 1022.04 1022.30 1022.62 1022.97 1023.29 1023.50 1023.57 1023.48 1023.24 1022.91 1022.54 1022.17 1021.85 1021.58 1021.36 1021.16 1020.94 1020.66 1020.31 1019.89 1019.43 1018.97 1018.54 1018.19 1017.92 1017.73 1017.58 1017.44 1017.27 1017.06 1016.78 1016.46 1016.11 1015.77 1015.47 1015.21 1015.00 1014.82 1014.66 1014.49
1019.26 1020.38 1021.22 1021.79 1022.13 1022.30 1022.37 1022.43 1022.52 1022.68 1022.91 1023.20 1023.48 1023.72 1023.85 1023.86 1023.73 1023.49 1023.17 1022.82 1022.49 1022.20 1021.96 1021.76 1021.57 1021.35 1021.07 1020.72 1020.31 1019.86 1019.41 1018.99 1018.63 1018.35 1018.14 1017.97 1017.81 1017.62 1017.40 1017.13 1016.81 1016.47 1016.13 1015.82 1015.55 1015.33 1015.13 1014.96 1014.79
1020.29 1021.31 1022.07 1022.60 1022.93 1023.11 1023.20 1023.26 1023.34 1023.46 1023.62 1023.81 1023.98 1024.11 1024.15 1024.09 1023.93 1023.69 1023.38 1023.06 1022.76 1022.49 1022.26 1022.05 1021.85 1021.63 1021.35 1021.02 1020.63 1020.21 1019.77 1019.37 1019.02 1018.73 1018.49 1018.30 1018.11 1017.91 1017.67 1017.40 1017.09 1016.75 1016.43 1016.12 1015.85 1015.61 1015.41 1015.23 1015.05
1021.31 1022.25 1022.97 1023.49 1023.83 1024.05 1024.17 1024.23 1024.28 1024.32 1024.37 1024.43 1024.47 1024.48 1024.43 1024.32 1024.13 1023.89 1023.61 1023.31 1023.02 1022.75 1022.50 1022.28 1022.06 1021.82 1021.55 1021.23 1020.88 1020.50 1020.11 1019.73 1019.40 1019.10 1018.85 1018.62 1018.41 1018.19 1017.95 1017.67 1017.37 1017.05 1016.73 1016.44 1016.16 1015.92 1015.71 1015.52 1015.33
1022.26 1023.12 1023.82 1024.36 1024.75 1025.01 1025.17 1025.23 1025.23 1025.19 1025.12 1025.04 1024.95 1024.84 1024.72 1024.56 1024.37 1024.14 1023.88 1023.60 1023.31 1023.02 1022.75 1022.49 1022.25 1021.99 1021.73 1021.44 1021.13 1020.80 1020.47 1020.13 1019.82 1019.52 1019.26 1019.01 1018.77 1018.53 1018.28 1018.01 1017.72 1017.42 1017.12 1016.83 1016.56 1016.31 1016.09 1015.88 1015.68
1023.05 1023.86 1024.55 1025.13 1025.58 1025.90 1026.09 1026.15 1026.11 1025.98 1025.80 1025.59 1025.39 1025.19 1025.01 1024.83 1024.65 1024.44 1024.21 1023.94 1023.65 1023.35 1023.04 1022.75 1022.47 1022.21 1021.95 1021.70 1021.45 1021.18 1020.90 1020.61 1020.32 1020.04 1019.76 1019.49 1019.24 1018.98 1018.73 1018.46 1018.19 1017.90 1017.61 1017.33 1017.06 1016.81 1016.57 1016.35 1016.13
1023.67 1024.43 1025.12 1025.73 1026.24 1026.62 1026.85 1026.91 1026.83 1026.63 1026.36 1026.05 1025.76 1025.50 1025.29 1025.12 1024.96 1024.79 1024.59 1024.35 1024.06 1023.73 1023.40 1023.07 1022.77 1022.51 1022.28 1022.07 1021.87 1021.67 1021.45 1021.21 1020.94 1020.66 1020.37 1020.09 1019.81 1019.55 1019.29 1019.03 1018.77 1018.50 1018.23 1017.96 1017.69 1017.43 1017.19 1016.96 1016.73
1024.11 1024.82 1025.52 1026.17 1026.74 1027.16 1027.42 1027.49 1027.37 1027.11 1026.77 1026.39 1026.05 1025.76 1025.55 1025.40 1025.29 1025.17 1025.01 1024.79 1024.51 1024.18 1023.82 1023.48 1023.17 1022.91 1022.71 1022.55 1022.41 1022.27 1022.10 1021.90 1021.65 1021.37 1021.08 1020.77 1020.48 1020.20 1019.94 1019.69 1019.45 1019.20 1018.95 1018.69 1018.44 1018.18 1017.94 1017.71 1017.49
1024.41 1025.09 1025.79 1026.48 1027.08 1027.54 1027.81 1027.87 1027.73 1027.42 1027.03 1026.61 1026.24 1025.95 1025.76 1025.66 1025.60 1025.53 1025.42 1025.24 1024.97 1024.65 1024.29 1023.94 1023.64 1023.40 1023.23 1023.12 1023.04 1022.95 1022.82 1022.65 1022.41 1022.13 1021.82 1021.51 1021.20 1020.91 1020.65 1020.42 1020.19 1019.97 1019.74 1019.51 1019.27 1019.04 1018.81 1018.60 1018.40
1024.65 1025.30 1026.00 1026.70 1027.33 1027.80 1028.07 1028.11 1027.93 1027.59 1027.15 1026.71 1026.33 1026.06 1025.91 1025.86 1025.86 1025.86 1025.80 1025.65 1025.41 1025.10 1024.76 1024.42 1024.14 1023.93 1023.80 1023.73 1023.70 1023.65 1023.56 1023.40 1023.18 1022.89 1022.57 1022.24 1021.93 1021.64 1021.39 1021.17 1020.97 1020.77 1020.57 1020.37 1020.16 1019.95 1019.76 1019.59 1019.42
1024.88 1025.51 1026.22 1026.92 1027.54 1028.00 1028.25 1028.25 1028.03 1027.64 1027.18 1026.72 1026.35 1026.11 1026.00 1026.00 1026.06 1026.11 1026.10 1026.00 1025.79 1025.51 1025.19 1024.88 1024.63 1024.45 1024.37 1024.34 1024.33 1024.32 1024.25 1024.11 1023.89 1023.60 1023.28 1022.94 1022.63 1022.35 1022.12 1021.92 1021.74 1021.58 1021.41 1021.24 1021.06 1020.90 1020.74 1020.61 1020.49
1025.15 1025.77 1026.47 1027.16 1027.75 1028.18 1028.37 1028.33 1028.05 1027.63 1027.14 1026.68 1026.32 1026.10 1026.03 1026.08 1026.19 1026.29 1026.33 1026.26 1026.09 1025.85 1025.56 1025.29 1025.07 1024.93 1024.88 1024.88 1024.91 1024.91 1024.86 1024.73 1024.52 1024.24 1023.93 1023.61 1023.31 1023.05 1022.84 1022.67 1022.52 1022.38 1022.24 1022.09 1021.95 1021.82 1021.71 1021.62 1021.54
1025.45 1026.07 1026.75 1027.41 1027.96 1028.33 1028.46 1028.35 1028.02 1027.56 1027.05 1026.58 1026.24 1026.05 1026.02 1026.11 1026.26 1026.40 1026.47 1026.44 1026.32 1026.11 1025.86 1025.63 1025.45 1025.35 1025.33 1025.36 1025.40 1025.42 1025.39 1025.27 1025.08 1024.82 1024.53 1024.24 1023.97 1023.75 1023.57 1023.42 1023.29 1023.18 1023.05 1022.93 1022.81 1022.70 1022.61 1022.55 1022.50
1025.74 1026.36 1027.02 1027.64 1028.13 1028.43 1028.49 1028.31 1027.93 1027.43 1026.91 1026.45 1026.13 1025.97 1025.97 1026.09 1026.27 1026.44 1026.55 1026.56 1026.47 1026.30 1026.10 1025.91 1025.78 1025.72 1025.72 1025.77 1025.83 1025.87 1025.85 1025.75 1025.58 1025.36 1025.11 1024.86 1024.64 1024.46 1024.31 1024.19 1024.08 1023.97 1023.85 1023.73 1023.61 1023.50 1023.42 1023.37 1023.33
1025.96 1026.57 1027.20 1027.77 1028.19 1028.41 1028.40 1028.16 1027.75 1027.23 1026.71 1026.28 1025.98 1025.85 1025.89 1026.04 1026.25 1026.44 1026.58 1026.62 1026.57 1026.45 1026.30 1026.17 1026.08 1026.05 1026.08 1026.15 1026.23 1026.28 1026.28 1026.20 1026.07 1025.89 1025.69 1025.49 1025.32 1025.18 1025.06 1024.96 1024.85 1024.74 1024.61 1024.47 1024.33 1024.21 1024.12 1024.05 1024.00
1026.03 1026.63 1027.22 1027.73 1028.09 1028.24 1028.16 1027.88 1027.45 1026.94 1026.45 1026.05 1025.80 1025.71 1025.78 1025.96 1026.19 1026.41 1026.57 1026.65 1026.64 1026.58 1026.49 1026.41 1026.37 1026.38 1026.44 1026.53 1026.62 1026.68 1026.70 1026.65 1026.55 1026.42 1026.27 1026.13 1026.01 1025.90 1025.81 1025.72 1025.61 1025.48 1025.33 1025.16 1024.99 1024.83 1024.70 1024.60 1024.53
1025.91 1026.48 1027.03 1027.47 1027.76 1027.85 1027.73 1027.44 1027.01 1026.54 1026.10 1025.76 1025.57 1025.53 1025.64 1025.85 1026.10 1026.34 1026.53 1026.65 1026.69 1026.69 1026.66 1026.64 1026.66 1026.72 1026.81 1026.92 1027.03 1027.10 1027.13 1027.10 1027.04 1026.95 1026.85 1026.75 1026.67 1026.60 1026.52 1026.43 1026.31 1026.16 1025.97 1025.77 1025.56 1025.37 1025.20 1025.06 1024.94
1025.58 1026.11 1026.60 1026.98 1027.21 1027.25 1027.11 1026.82 1026.44 1026.02 1025.66 1025.41 1025.29 1025.31 1025.46 1025.70 1025.97 1026.24 1026.45 1026.61 1026.71 1026.77 1026.82 1026.87 1026.95 1027.06 1027.19 1027.33 1027.44 1027.52 1027.56 1027.55 1027.51 1027.45 1027.38 1027.32 1027.27 1027.22 1027.15 1027.06 1026.93 1026.75 1026.54 1026.30 1026.06 1025.83 1025.63 1025.45 1025.29
1025.08 1025.56 1025.97 1026.28 1026.45 1026.46 1026.32 1026.06 1025.74 1025.42 1025.15 1024.99 1024.96 1025.05 1025.24 1025.50 1025.80 1026.08 1026.32 1026.52 1026.68 1026.81 1026.94 1027.07 1027.22 1027.39 1027.56 1027.71 1027.84 1027.92 1027.96 1027.96 1027.93 1027.88 1027.84 1027.80 1027.77 1027.73 1027.67 1027.57 1027.43 1027.25 1027.02 1026.77 1026.50 1026.25 1026.03 1025.83 1025.64
Thickness
5793 5793 5790 5777 5750 5727 5721 5730 5739 5742 5745 5753 5757 5753 5744 5738 5733 5727 5746 5755 5756 5757 5759 5760 5762 5763 5764 5766 5767 5768 5769 5769 5770 5770 5770 5771 5771 5771 5771 5771 5771 5771 5770 5770 5769 5769 5768 5768 5767
5793 5791 5780 5760 5731 5711 5717 5732 5736 5744 5751 5757 5756 5752 5744 5740 5745 5745 5748 5753 5755 5756 5758 5759 5760 5761 5762 5763 5764 5765 5766 5766 5767 5767 5767 5768 5768 5768 5768 5768 5768 5767 5767 5766 5765 5765 5765 5764 5764
5792 5788 5764 5742 5724 5714 5720 5734 5739 5748 5756 5756 5750 5749 5743 5739 5745 5746 5750 5754 5754 5755 5756 5757 5758 5759 5760 5760 5761 5762 5762 5763 5763 5763 5764 5764 5764 5765 5765 5765 5765 5764 5764 5762 5762 5761 5761 5760 5760
5785 5770 5754 5732 5722 5728 5733 5738 5745 5746 5750 5753 5748 5739 5741 5748 5749 5751 5753 5753 5752 5753 5754 5754 5755 5756 5757 5757 5758 5759 5759 5759 5759 5760 5760 5760 5760 5761 5761 5761 5761 5760 5760 5759 5758 5757 5757 5757 5756
5777 5755 5733 5720 5724 5733 5740 5746 5748 5743 5743 5745 5744 5733 5734 5747 5753 5753 5752 5752 5751 5750 5751 5752 5753 5753 5753 5754 5754 5755 5756 5756 5756 5756 5756 5756 5756 5756 5756 5757 5756 5756 5755 5754 5754 5754 5754 5753 5753
5757 5742 5719 5711 5722 5733 5741 5747 5747 5742 5740 5743 5741 5732 5732 5746 5748 5750 5751 5749 5750 5749 5748 5749 5749 5750 5750 5751 5752 5752 5752 5752 5752 5752 5752 5752 5752 5752 5752 5752 5752 5751 5751 5750 5750 5750 5749 5749 5749
5748 5731 5718 5717 5720 5726 5738 5747 5743 5739 5738 5741 5743 5729 5731 5740 5746 5749 5749 5748 5747 5747 5746 5746 5746 5746 5747 5750 5751 5749 5748 5748 5748 5748 5748 5748 5748 5747 5747 5747 5747 5746 5746 5746 5746 5745 5745 5745 5744
5755 5733 5721 5718 5719 5723 5740 5746 5746 5742 5739 5748 5746 5729 5727 5739 5746 5747 5745 5744 5743 5743 5743 5742 5742 5743 5744 5745 5746 5745 5744 5744 5744 5743 5743 5743 5743 5743 5742 5742 5742 5742 5742 5742 5741 5741 5741 5740 5739
5757 5725 5713 5719 5721 5725 5740 5741 5745 5750 5745 5744 5744 5741 5741 5745 5744 5741 5738 5737 5737 5738 5739 5739 5739 5740 5740 5740 5740 5740 5739 5739 5739 5739 5739 5739 5739 5738 5737 5738 5738 5738 5738 5737 5737 5736 5736 5735 5734
5742 5719 5723 5734 5734 5732 5736 5739 5741 5738 5734 5733 5735 5740 5743 5741 5738 5735 5733 5731 5732 5732 5735 5736 5736 5736 5736 5737 5736 5736 5735 5735 5734 5734 5734 5734 5734 5734 5733 5733 5733 5733 5733 5733 5733 5732 5731 5730 5729
5741 5728 5734 5738 5741 5740 5737 5738 5742 5733 5726 5730 5731 5733 5736 5736 5733 5732 5731 5731 5731 5732 5732 5733 5733 5733 5733 5733 5732 5731 5731 5730 5730 5730 5730 5730 5729 5729 5729 5728 5728 5728 5728 5727 5727 5727 5726 5725 5724
5738 5737 5739 5738 5743 5741 5737 5737 5735 5733 5732 5739 5739 5737 5735 5732 5730 5729 5729 5729 5730 5730 5730 5731 5731 5731 5730 5730 5729 5727 5727 5726 5726 5726 5726 5726 5725 5724 5723 5723 5723 5723 5722 5722 5721 5721 5720 5720 5719
5733 5733 5739 5740 5741 5739 5738 5733 5731 5731 5737 5739 5737 5734 5731 5729 5728 5729 5730 5729 5728 5727 5728 5728 5728 5727 5727 5726 5725 5723 5723 5722 5722 5722 5722 5722 5721 5720 5719 5718 5718 5718 5718 5717 5716 5715 5715 5714 5714
5733 5733 5733 5735 5735 5735 5729 5727 5728 5728 5734 5732 5730 5728 5728 5727 5727 5726 5726 5725 5725 5726 5726 5726 5725 5724 5724 5722 5721 5720 5719 5718 5718 5718 5717 5717 5717 5716 5715 5714 5713 5713 5712 5712 5711 5710 5709 5708 5708
5735 5724 5723 5727 5729 5729 5726 5715 5720 5729 5730 5726 5726 5726 5726 5726 5726 5725 5725 5725 5724 5724 5724 5724 5723 5721 5720 5719 5718 5716 5715 5715 5714 5713 5713 5713 5712 5712 5711 5710 5709 5708 5708 5707 5706 5705 5704 5703 5702
5723 5710 5702 5717 5724 5726 5716 5699 5718 5727 5725 5720 5721 5722 5722 5723 5725 5725 5726 5724 5723 5722 5721 5721 5721 5718 5716 5715 5714 5713 5711 5710 5710 5709 5708 5708 5708 5707 5706 5705 5704 5703 5703 5702 5701 5699 5698 5696 5695
5703 5693 5695 5707 5721 5720 5711 5701 5715 5722 5721 5716 5717 5718 5718 5719 5721 5723 5724 5723 5722 5721 5719 5718 5716 5715 5713 5711 5710 5709 5707 5706 5705 5704 5704 5704 5703 5703 5702 5700 5700 5699 5698 5697 5696 5693 5691 5690 5689
5690 5692 5695 5698 5712 5713 5704 5702 5712 5717 5718 5714 5714 5714 5715 5715 5717 5720 5721 5721 5720 5718 5716 5714 5713 5711 5710 5707 5705 5704 5702 5701 5700 5700 5699 5699 5699 5698 5697 5696 5695 5694 5693 5691 5689 5688 5686 5685 5684
5702 5696 5693 5700 5713 5707 5700 5700 5706 5711 5712 5711 5710 5711 5711 5714 5717 5718 5719 5718 5716 5714 5712 5710 5708 5707 5706 5703 5700 5697 5695 5695 5695 5695 5694 5694 5694 5693 5692 5691 5690 5689 5687 5685 5684 5682 5680 5678 5678
5700 5692 5690 5698 5709 5704 5696 5697 5704 5707 5709 5712 5711 5709 5710 5711 5712 5713 5713 5713 5712 5710 5708 5706 5705 5703 5702 5700 5698 5695 5693 5691 5690 5689 5689 5689 5688 5688 5687 5686 5684 5683 5681 5680 5678 5677 5673 5671 5671
5695 5691 5691 5690 5698 5700 5692 5687 5695 5703 5708 5711 5711 5711 5711 5711 5710 5709 5709 5708 5708 5706 5705 5705 5702 5700 5699 5697 5694 5691 5688 5685 5684 5683 5682 5683 5683 5683 5682 5681 5680 5678 5676 5674 5673 5671 5668 5664 5664
5687 5701 5699 5694 5682 5674 5682 5665 5684 5694 5697 5703 5705 5706 5707 5710 5710 5708 5707 5705 5705 5704 5703 5701 5699 5697 5695 5693 5690 5686 5682 5678 5677 5677 5677 5678 5678 5677 5676 5676 5674 5672 5671 5669 5668 5666 5664 5661 5657
5695 5705 5699 5693 5680 5671 5674 5664 5673 5686 5686 5694 5700 5703 5705 5707 5707 5706 5706 5704 5703 5702 5700 5698 5696 5693 5691 5689 5686 5683 5678 5675 5674 5673 5672 5672 5672 5672 5671 5670 5669 5667 5666 5664 5663 5661 5659 5656 5653
5701 5694 5687 5676 5667 5655 5667 5660 5663 5674 5685 5693 5698 5700 5702 5703 5704 5703 5703 5701 5699 5697 5695 5693 5691 5688 5686 5685 5682 5679 5675 5671 5669 5667 5666 5665 5665 5665 5666 5665 5664 5662 5660 5659 5657 5655 5653 5651 5649
5689 5668 5651 5648 5641 5646 5666 5661 5664 5682 5692 5695 5696 5696 5697 5698 5698 5697 5696 5695 5693 5692 5690 5688 5686 5683 5682 5680 5677 5675 5672 5669 5666 5663 5662 5660 5659 5659 5660 5659 5658 5657 5655 5654 5652 5650 5648 5646 5644
5680 5667 5645 5637 5636 5644 5660 5656 5668 5685 5692 5696 5696 5694 5693 5693 5693 5693 5692 5691 5689 5688 5686 5684 5681 5678 5676 5674 5673 5670 5668 5665 5662 5660 5658 5657 5656 5655 5655 5654 5653 5652 5650 5649 5647 5644 5642 5641 5639
5674 5664 5665 5649 5646 5639 5645 5657 5670 5682 5684 5686 5687 5687 5686 5687 5689 5688 5688 5686 5685 5683 5681 5679 5677 5674 5672 5670 5668 5666 5664 5661 5659 5657 5655 5653 5652 5652 5650 5649 5648 5647 5645 5643 5641 5638 5636 5635 5633
5683 5673 5654 5645 5634 5628 5640 5648 5654 5668 5672 5677 5678 5678 5680 5682 5682 5683 5683 5682 5680 5679 5677 5675 5672 5670 5668 5666 5664 5662 5659 5657 5655 5653 5650 5649 5647 5646 5645 5644 5642 5641 5639 5637 5635 5632 5630 5629 5627
5672 5667 5657 5643 5638 5628 5627 5642 5669 5669 5671 5672 5674 5676 5677 5677 5677 5677 5676 5676 5675 5673 5671 5669 5667 5665 5662 5660 5659 5657 5654 5652 5650 5648 5646 5644 5643 5641 5640 5638 5636 5634 5632 5631 5628 5626 5624 5622 5621
5674 5666 5655 5639 5636 5633 5627 5638 5672 5671 5671 5671 5671 5671 5672 5673 5673 5672 5671 5669 5668 5666 5665 5663 5661 5660 5658 5656 5653 5651 5649 5647 5644 5642 5640 5639 5637 5636 5634 5632 5630 5628 5626 5624 5622 5620 5618 5616 5614